Tracking 19153 objects as of 27-Apr-2018
HD Live streaming from Space Station
objects crossing your sky now

COSMOS 2251 DEB

Track COSMOS 2251 DEB now!
10-day predictions


NORAD ID: 34544
Int'l Code: 1993-036UE
Perigee: 779.6 km
Apogee: 1,369.1 km
Inclination: 73.9 °
Period: 106.6 minutes
Semi major axis: 7445 km
RCS: 0.0085 m2 (small)
Launch date: June 16, 1993
Source: Commonwealth of Independent States (former USSR) (CIS)
Launch site: PLESETSK MISSILE AND SPACE COMPLEX (PKMTR)

Note: This is SATELLITE DEBRIS
aabbcc
Your satellite tracking list
Your tracking list is empty




NASA's NSSDC Master Catalog

Two Line Element Set (TLE):
1 34544U 93036UE  18116.19240247  .00000129  00000-0  14281-3 0  9998
2 34544  73.9206  18.6096 0395882 201.7223 315.8723 13.51368304452667
Source of the keplerian elements: AFSPC